Skip Page Navigation
NASA JPL Caltech
NASA Logo - Jet Propulsion Laboratory + View the NASA Portal
+ Near-Earth Object (NEO) Program
Search JPL
JPL Home Earth Solar System Stars & Galaxies Technology
JPL Solar System Dynamics
BODIES ORBITS EPHEMERIDES TOOLS PHYSICAL DATA DISCOVERY FAQ SITE MAP
JPL Small-Body Database Browser
Search: [ help ]  
166745 Pindor (2002 TV307)
Classification: Main-belt Asteroid          SPK-ID: 2166745
Ephemeris | Orbit Diagram | Orbital Elements | Physical Parameters | Discovery Circumstances | Close-Approach Data ]

[ show orbit diagram ]
Orbital Elements at Epoch 2457600.5 (2016-Jul-31.0) TDB
Reference: JPL 11 (heliocentric ecliptic J2000)
 Element Value Uncertainty (1-sigma)   Units 
e .04956223099376007 1.0883e-07  
a 3.162510764205586 4.4035e-08 au
q 3.005769675189776 3.3443e-07 au
i 12.05679773957111 1.0474e-05 deg
node 166.2602250257974 3.4994e-05 deg
peri 163.9317851932345 0.00010281 deg
M 211.5053687660638 0.00010257 deg
tp 2458447.834124247674
(2018-Nov-25.33412425)
0.00059363 JED
period 2054.217598268633
5.62
4.2905e-05
1.175e-07
d
yr
n .1752492045163184 3.6603e-09 deg/d
Q 3.319251853221395 4.6217e-08 au
  Orbit Determination Parameters
   # obs. used (total)      169  
   data-arc span      4931 days (13.50 yr)  
   first obs. used      2002-10-04  
   last obs. used      2016-04-04  
   planetary ephem.      DE431  
   SB-pert. ephem.      SB431-BIG16  
   condition code      0  
   fit RMS      .66984  
   data source      ORB  
   producer      Otto Matic  
   solution date      2016-Apr-25 17:15:45  

Additional Information
 Earth MOID = 1.9969 au 
 Jupiter MOID = 1.93265 au 
 T_jup = 3.168 
[ show covariance matrix ]

Ephemeris | Orbit Diagram | Orbital Elements | Physical Parameters | Discovery Circumstances | Close-Approach Data ]

Physical Parameter Table
Parameter Symbol Value Units Sigma Reference Notes
absolute magnitude H 15.4 mag n/a MPO320738  

166745 Pindor           Discovered 2002 Oct. 4 by the Sloan Digital Sky Survey at Apache Point.
Bartosz Pindor (b. 1975) is an Canadian astronomer and a contributor to the Sloan Digital Sky Survey, known for work on gravitationally-lensed quasars.
NOTE: some special characters may not display properly (any characters within {} are an attempt to place the proper accent above a character)
Reference: 20130127/MPCPages.arcLast Updated: 2013-01-31

[ show close-approach data ]
Alternate Designations
 2002 TV307 = 2005 DR 
Ephemeris | Orbit Diagram | Orbital Elements | Physical Parameters | Discovery Circumstances | Close-Approach Data ]
ABOUT SSD CREDITS/AWARDS PRIVACY/COPYRIGHT GLOSSARY LINKS
FirstGov 2016-May-05 04:48 UT
(server date/time)  
NASA Home Page
Site Manager:   Ryan S. Park
Webmaster  Alan B. Chamberlin